User: anonymous   Login
Location: Bonny Doon Airfield
(37.0704°N, 122.1252°W)
Time: 22:28:47
(UTC-07:00)
Language:

BREEZE M DEB (TANK) - Orbit

View from above orbital plane
View from above orbital plane
View from above satellite
View from above satellite

Ground track
Ground track

The orbit data is extracted from the following two-line orbital elements,

1 33437U 08057B   16240.12826160  .00000376  00000-0  12451-3 0  9991
2 33437  49.5653 137.7917 4993922 221.8245  86.8297  5.59615449157383
Epoch (UTC): 27 August 2016 03:04:41
Eccentricity: 0.4993922
inclination: 49.5653°
perigee height: 330 km
apogee height: 13715 km
right ascension of ascending node: 137.7917°
argument of perigee: 221.8245°
revolutions per day: 5.59615449
mean anomaly at epoch: 86.8297°
orbit number at epoch: 15738

The dashed part of the orbit path shows where the satellite is in the earth's shadow,  

DLR